Location: Unspecified
(41.1637°N, 24.2901°E)
Time: 11:22:49
(UTC+02:00)

ISS - Pass Details

Date: 17 April 2026
Orbit: 416 x 424 km, 51.6° (Epoch: 10 April)

Event Time Altitude Azimuth Distance (km) Brightness Sun altitude
Exits shadow 04:36:39 - 190° (S) 1,684 -1.0 -12.2°
Reaches altitude 10° 04:37:14 10° 184° (S) 1,489 -1.3 -12.1°
Maximum altitude 04:39:49 21° 133° (SE) 1,000 -1.6 -11.6°
Drops below altitude 10° 04:42:26 10° 82° (E) 1,501 0.4 -11.2°
Sets 04:44:52 0° 66° (ENE) 2,371 2.4 -10.8°
